Location: B?jaj?g
(11.7167°N, 92.6667°E)
Time: 05:29:29
(UTC+00:00)

IRIDIUM 104 - Pass Details

Date: 18 September 2020
Orbit: 776 x 779 km, 86.4° (Epoch: 20 October)

Event Time Altitude Azimuth Distance (km) Brightness Sun altitude
Rises 22:12:54 0° 356° (N) 3,246 7.6 -21.8°
Reaches altitude 10° 22:15:15 10° 354° (N) 2,319 6.8 -21.2°
Maximum altitude 22:20:25 72° 271° (W) 814 4.2 -19.9°
Drops below altitude 10° 22:25:35 10° 187° (S) 2,318 6.7 -18.7°
Sets 22:27:56 0° 185° (S) 3,245 7.4 -18.1°
